Regional Weather Roundup
Issued by NWS

Home | Current Version | Previous Version | Graphics & Text | Print | Product List | Glossary On
Versions: 1 2 3 4 5 6 7 8 9 10 11 12 13 14 15 16 17 18 19 20 21 22 23 24 25 26 27 28 29 30 31 32 33 34 35 36 37 38 39 40 41 42 43 44 45 46 47 48 49 50
000
ASUS43 KLOT 272204
RWRIL

ILLINOIS REGIONAL WEATHER ROUNDUP
NATIONAL WEATHER SERVICE CHICAGO/ROMEOVILLE IL
500 PM CDT FRI MAY 27 2016

NOTE: "FAIR" INDICATES FEW OR NO CLOUDS BELOW 12,000 FEET WITH NO
SIGNIFICANT WEATHER AND/OR OBSTRUCTIONS TO VISIBILITY.

* THESE STATIONS ARE NOT UNDER NWS QUALITY CONTROL. THEY ALSO MAY NOT
  REPORT WEATHER SUCH AS PRECIPITATION OR FOG.

ILZ001-002-007-009-015-016-024-272300-
NORTHWEST ILLINOIS

CITY           SKY/WX    TMP DP  RH WIND       PRES   REMARKS
MOLINE         CLOUDY    78  68  71 S10G22    29.76F HX  80
STERLING*      CLOUDY    75  69  81 S8        29.79F
$$

ILZ003-004-008-010-011-017-018-272300-
NORTH CENTRAL ILLINOIS

CITY           SKY/WX    TMP DP  RH WIND       PRES   REMARKS
ROCKFORD       CLOUDY    73  67  81 S12       29.82F
FREEPORT*      CLOUDY    72  67  83 S14G21    29.81F
ROCHELLE*      CLOUDY    76  67  74 S20       29.81F
$$

ILZ005-006-012>014-019>023-272300-
NORTHEAST ILLINOIS

CITY           SKY/WX    TMP DP  RH WIND       PRES   REMARKS
CHICAGO-OHARE  CLOUDY    77  67  71 S15       29.83S
CHICAGO-MIDWAY CLOUDY    80  65  59 S12G22    29.83F HX  82
AURORA         CLOUDY    76  68  76 S9        29.83F
LANSING*       CLOUDY    76  67  74 S12G21    29.86S
WAUKEGAN       LGT RAIN  66  64  93 SE9       29.84R FOG
DUPAGE AIRPORT CLOUDY    72  67  84 SW10      29.83S
WHEELING       CLOUDY    76  68  76 S14       29.84F
NORTHERLY ISL    N/A     68  62  81 SE3         N/A
NORTHERLY ISL    N/A     68  62  81 SE3         N/A
$$

LMZ740>746-272300-
SOUTHERN LAKE MICHIGAN

STATION/POSITION SKY/WX   TEMP    WIND        PRES    VSBY  WAVE
                          AIR SEA DIR/SP/G                  HT/PER
                          (F)     (DEG/KT/KT) (MB)    (MI)  (FT/S)
SOUTHERN BUOY              57 51  120/ 10/ 10 1011.1          1
WILMETTE HARBOR            64 59  180/ 14/ 21   N/A           1/ 2
HARRISON CRIB              69     180/  9/ 11   N/A
BURNHAM HARBOR             65     150/  5/ 10   N/A
CALUMET HARBOR             73     170/  7/ 12 1010.4R
BURNS HARBOR               73     200/ 17/ 24 1011.9R
MICHIGAN CITY              83     150/ 12/ 16   N/A
MICHIGAN CITY 6N           72 60  180/  8/ 10   N/A           1/ 2
ST. JOSEPH                 74 64  150/  8/ 12   N/A           1
$$

ILZ025>027-034>036-040-047-049-050-058-095>099-272300-
WEST-CENTRAL ILLINOIS

CITY           SKY/WX    TMP DP  RH WIND       PRES   REMARKS
QUINCY         PTSUNNY   79  68  69 S9        29.76F HX  81
MACOMB*        CLOUDY    77  69  76 S12       29.80F
PITTSFIELD*    PTSUNNY   77  71  81 SE13      29.80S
$$

ILZ028>032-037-038-041>044-048-051>054-059>061-272300-
CENTRAL ILLINOIS

CITY           SKY/WX    TMP DP  RH WIND       PRES   REMARKS
BLOOMINGTON    PTSUNNY   78  69  73 S18       29.85F HX  80
DECATUR        CLOUDY    77  67  71 S13       29.85F
PEORIA         CLOUDY    77  66  68 S17       29.80F
SPRINGFIELD    CLOUDY    77  68  73 S14       29.82F
TAYLORVILLE    NOT AVBL
$$

ILZ033-039-045-046-055>057-062-063-272300-
EAST-CENTRAL ILLINOIS

CITY           SKY/WX    TMP DP  RH WIND       PRES   REMARKS
CHAMPAIGN      CLOUDY    80  66  62 S22       29.87S HX  82
MATTOON        CLOUDY    75  68  78 S8        29.86F
$$

ILZ079-100>102-272300-
SOUTHWEST ILLINOIS

CITY           SKY/WX    TMP DP  RH WIND       PRES   REMARKS
ALTON          CLOUDY    75  68  78 S16       29.82F
BELLEVILLE     CLOUDY    74  74  99 E9        29.82F
CAHOKIA*       CLOUDY    78  69  73 S10       29.81F HX  80
$$

ILZ064>066-069>071-074>076-080>082-084>086-088>090-092>094-272300-
SOUTH-CENTRAL ILLINOIS

CITY           SKY/WX    TMP DP  RH WIND       PRES   REMARKS
CARBONDALE     TSTM      69  66  90 S6        29.88F
MARION         HVY RAIN  77  72  83 SW17G28   29.89R
MT. VERNON     CLOUDY    73  70  88 S3        29.89F
SALEM*         HVY RAIN  71  67  85 S9        29.88R
$$

ILZ067-068-072-073-078-083-087-091-272300-
SOUTHEAST ILLINOIS

CITY           SKY/WX    TMP DP  RH WIND       PRES   REMARKS
LAWRENCEVILLE  SUNNY     85  64  49 S22G30    29.89F HX  86
FLORA*         LGT RAIN  76  71  82 S15       29.90R
HARRISBURG*    MOSUNNY   81  71  71 S16       29.88S HX  84
ROBINSON*      CLOUDY    79  67  65 S15       29.89F HX  81
$$

ABBREVIATIONS USED IN REMARKS
   TC - TEMPERATURE IN CELSIUS
  WCI - WIND CHILL INDEX
   HX - HEAT INDEX
  VSB - VISIBILITY
$$





USA.gov is the U.S. government's official web portal to all federal, state and local government web resources and services.